EN

Hourly Weather Lagovschina

Today, 1 August, Sunday

Time Temperature Precipitation Wind Pressure Humidity
00:00 +19°C° 0.2 mm 2 mps 737 mmHg 75%
01:00 +18°C° 0.2 mm 3 mps 737 mmHg 82%
02:00 +18°C° 0.2 mm 3 mps 737 mmHg 88%
03:00 +18°C° 0.2 mm 3 mps 737 mmHg 89%
04:00 +18°C° 0.2 mm 3 mps 737 mmHg 91%
05:00 +18°C° 0.2 mm 3 mps 737 mmHg 92%
06:00 +19°C° 0.1 mm 4 mps 737 mmHg 89%
07:00 +20°C° 0.1 mm 4 mps 737 mmHg 85%
08:00 +21°C° 0.1 mm 5 mps 737 mmHg 82%
09:00 +22°C° 0.2 mm 5 mps 737 mmHg 75%
10:00 +25°C° 0.2 mm 5 mps 737 mmHg 68%
11:00 +26°C° 0.2 mm 5 mps 738 mmHg 62%
12:00 +27°C° 0.1 mm 5 mps 738 mmHg 55%
13:00 +28°C° 0.1 mm 5 mps 738 mmHg 48%
14:00 +29°C° 0.1 mm 5 mps 738 mmHg 40%
15:00 +28°C° 0 mm 4 mps 738 mmHg 41%
16:00 +28°C° 0 mm 4 mps 738 mmHg 42%
17:00 +28°C° 0 mm 4 mps 738 mmHg 42%
18:00 +26°C° 0 mm 3 mps 737 mmHg 48%
19:00 +24°C° 0 mm 2 mps 737 mmHg 54%
20:00 +22°C° 0 mm 1 mps 737 mmHg 60%
21:00 +22°C° 0 mm 1 mps 737 mmHg 60%
22:00 +20°C° 0 mm 2 mps 737 mmHg 61%
23:00 +20°C° 0 mm 2 mps 737 mmHg 61%

Tomorrow, 2 August, Monday

Time Temperature Precipitation Wind Pressure Humidity
00:00 +19°C° 0 mm 2 mps 737 mmHg 63%
01:00 +19°C° 0 mm 2 mps 737 mmHg 66%
02:00 +18°C° 0 mm 3 mps 736 mmHg 69%
03:00 +18°C° 0.3 mm 2 mps 736 mmHg 76%
04:00 +18°C° 0.3 mm 2 mps 736 mmHg 83%
05:00 +18°C° 0.3 mm 1 mps 735 mmHg 90%
06:00 +18°C° 0.4 mm 2 mps 735 mmHg 91%
07:00 +18°C° 0.4 mm 2 mps 735 mmHg 91%
08:00 +19°C° 0.4 mm 2 mps 734 mmHg 92%
09:00 +20°C° 0.3 mm 3 mps 734 mmHg 86%
10:00 +22°C° 0.3 mm 4 mps 734 mmHg 81%
11:00 +23°C° 0.3 mm 5 mps 734 mmHg 76%
12:00 +25°C° 0.5 mm 5 mps 733 mmHg 74%
13:00 +26°C° 0.5 mm 5 mps 733 mmHg 71%
14:00 +26°C° 0.5 mm 5 mps 733 mmHg 69%
15:00 +25°C° 1.1 mm 5 mps 733 mmHg 74%
16:00 +23°C° 1.1 mm 6 mps 732 mmHg 78%
17:00 +22°C° 1.1 mm 6 mps 732 mmHg 83%
18:00 +21°C° 0.2 mm 6 mps 733 mmHg 86%
19:00 +19°C° 0.2 mm 6 mps 733 mmHg 90%
20:00 +16°C° 0.2 mm 7 mps 734 mmHg 94%
21:00 +16°C° 0 mm 6 mps 734 mmHg 93%
22:00 +15°C° 0 mm 5 mps 735 mmHg 93%
23:00 +15°C° 0 mm 5 mps 736 mmHg 93%

Day after tomorrow, 3 August, Tuesday

Time Temperature Precipitation Wind Pressure Humidity
00:00 +15°C° 0 mm 4 mps 736 mmHg 92%
01:00 +15°C° 0 mm 4 mps 736 mmHg 92%
02:00 +14°C° 0 mm 4 mps 736 mmHg 92%
03:00 +14°C° 0 mm 4 mps 737 mmHg 92%
04:00 +14°C° 0 mm 4 mps 737 mmHg 92%
05:00 +14°C° 0 mm 4 mps 737 mmHg 92%
06:00 +15°C° 0 mm 4 mps 738 mmHg 85%
07:00 +16°C° 0 mm 5 mps 738 mmHg 77%
08:00 +17°C° 0 mm 5 mps 739 mmHg 70%
09:00 +19°C° 0 mm 5 mps 739 mmHg 64%
10:00 +20°C° 0 mm 5 mps 739 mmHg 57%
11:00 +22°C° 0 mm 5 mps 739 mmHg 50%
12:00 +22°C° 0 mm 5 mps 739 mmHg 48%
13:00 +22°C° 0 mm 6 mps 739 mmHg 46%
14:00 +23°C° 0 mm 6 mps 739 mmHg 44%
15:00 +22°C° 0 mm 5 mps 739 mmHg 47%
16:00 +22°C° 0 mm 5 mps 740 mmHg 49%
17:00 +21°C° 0 mm 4 mps 740 mmHg 52%
18:00 +20°C° 0 mm 4 mps 740 mmHg 58%
19:00 +18°C° 0 mm 4 mps 740 mmHg 65%
20:00 +17°C° 0 mm 3 mps 741 mmHg 72%
21:00 +16°C° 0 mm 3 mps 741 mmHg 77%
22:00 +14°C° 0 mm 3 mps 741 mmHg 81%
23:00 +13°C° 0 mm 3 mps 741 mmHg 86%

4 August, Wednesday

Time Temperature Precipitation Wind Pressure Humidity
00:00 +13°C° 0 mm 3 mps 741 mmHg 88%
01:00 +13°C° 0 mm 3 mps 742 mmHg 90%
02:00 +12°C° 0 mm 3 mps 742 mmHg 92%
03:00 +13°C° 0 mm 2 mps 742 mmHg 93%
04:00 +13°C° 0 mm 2 mps 742 mmHg 93%
05:00 +13°C° 0 mm 2 mps 742 mmHg 94%
06:00 +15°C° 0 mm 2 mps 743 mmHg 87%
07:00 +16°C° 0 mm 2 mps 743 mmHg 80%
08:00 +18°C° 0 mm 2 mps 743 mmHg 74%
09:00 +19°C° 0.1 mm 2 mps 743 mmHg 69%
10:00 +21°C° 0.1 mm 2 mps 744 mmHg 63%
11:00 +23°C° 0.1 mm 2 mps 744 mmHg 58%
12:00 +23°C° 0.3 mm 2 mps 744 mmHg 57%
13:00 +24°C° 0.3 mm 2 mps 744 mmHg 55%
14:00 +24°C° 0.3 mm 2 mps 744 mmHg 54%
15:00 +24°C° 0 mm 2 mps 744 mmHg 54%
16:00 +24°C° 0 mm 1 mps 744 mmHg 54%
17:00 +24°C° 0 mm 1 mps 744 mmHg 54%
18:00 +22°C° 0 mm 1 mps 744 mmHg 59%
19:00 +21°C° 0 mm 1 mps 744 mmHg 63%
20:00 +18°C° 0 mm 0 mps 744 mmHg 67%
21:00 +19°C° 0 mm 1 mps 744 mmHg 69%
22:00 +19°C° 0 mm 1 mps 744 mmHg 71%
23:00 +17°C° 0 mm 2 mps 743 mmHg 73%

5 August, Thursday

Time Temperature Precipitation Wind Pressure Humidity
00:00 +17°C° 0 mm 2 mps 743 mmHg 72%
01:00 +17°C° 0 mm 2 mps 743 mmHg 71%
02:00 +17°C° 0 mm 2 mps 743 mmHg 71%
03:00 +16°C° 0.4 mm 2 mps 743 mmHg 78%
04:00 +16°C° 0.4 mm 2 mps 742 mmHg 84%
05:00 +15°C° 0.4 mm 2 mps 742 mmHg 91%
06:00 +14°C° 0.4 mm 3 mps 742 mmHg 91%
07:00 +14°C° 0.4 mm 3 mps 742 mmHg 92%
08:00 +15°C° 0.4 mm 4 mps 742 mmHg 92%
09:00 +17°C° 0.1 mm 4 mps 741 mmHg 87%
10:00 +17°C° 0.1 mm 5 mps 741 mmHg 82%
11:00 +20°C° 0.1 mm 5 mps 741 mmHg 76%
12:00 +21°C° 0.1 mm 5 mps 740 mmHg 73%
13:00 +21°C° 0.1 mm 5 mps 740 mmHg 70%
14:00 +22°C° 0.1 mm 5 mps 740 mmHg 67%
15:00 +22°C° 0.8 mm 4 mps 739 mmHg 71%
16:00 +22°C° 0.8 mm 4 mps 739 mmHg 75%
17:00 +22°C° 0.8 mm 3 mps 738 mmHg 79%
18:00 +21°C° 1.3 mm 3 mps 738 mmHg 84%
19:00 +19°C° 1.3 mm 4 mps 738 mmHg 90%
20:00 +18°C° 1.3 mm 4 mps 737 mmHg 95%
21:00 +18°C° 0.1 mm 4 mps 737 mmHg 96%
22:00 +18°C° 0.1 mm 4 mps 737 mmHg 96%
23:00 +18°C° 0.1 mm 4 mps 736 mmHg 97%

6 August, Friday

Time Temperature Precipitation Wind Pressure Humidity
00:00 +18°C° 0.5 mm 4 mps 736 mmHg 96%
01:00 +18°C° 0.5 mm 3 mps 736 mmHg 96%
02:00 +18°C° 0.5 mm 3 mps 735 mmHg 96%
03:00 +18°C° 0.5 mm 4 mps 735 mmHg 96%
04:00 +17°C° 0.5 mm 5 mps 734 mmHg 97%
05:00 +17°C° 0.5 mm 6 mps 733 mmHg 97%
06:00 +19°C° 0.8 mm 6 mps 733 mmHg 95%
07:00 +19°C° 0.8 mm 6 mps 733 mmHg 93%
08:00 +20°C° 0.8 mm 6 mps 733 mmHg 91%
09:00 +20°C° 0.4 mm 7 mps 733 mmHg 89%
10:00 +21°C° 0.4 mm 7 mps 733 mmHg 87%
11:00 +21°C° 0.4 mm 8 mps 734 mmHg 85%
12:00 +21°C° 0.2 mm 7 mps 734 mmHg 82%
13:00 +20°C° 0.2 mm 6 mps 734 mmHg 79%
14:00 +20°C° 0.2 mm 5 mps 735 mmHg 76%
15:00 +20°C° 0 mm 4 mps 735 mmHg 74%
16:00 +21°C° 0 mm 4 mps 735 mmHg 71%
17:00 +21°C° 0 mm 3 mps 735 mmHg 68%
18:00 +20°C° 0 mm 3 mps 735 mmHg 73%
19:00 +18°C° 0 mm 3 mps 736 mmHg 77%
20:00 +17°C° 0 mm 3 mps 736 mmHg 81%
21:00 +17°C° 0 mm 3 mps 736 mmHg 83%
22:00 +16°C° 0 mm 3 mps 736 mmHg 84%
23:00 +14°C° 0 mm 3 mps 737 mmHg 86%
Show more